EW7425 Weather Reports


time (UTC)temp
C
wind
direction
speed
KPH
gust
KPH
rain 1hr
cm
rain 24hr
cm
rain mn
cm
humidity
%
barometer
mb
20260504231503 14 265 0.0 3.2 0.00 0.00 0.00 63 1005.7
20260504231003 14 265 0.0 3.2 0.00 0.00 0.00 60 1005.6
20260504230503 15 265 1.6 9.7 0.00 0.00 0.00 60 1005.6
20260504230003 15 265 3.2 9.7 0.00 0.00 0.00 60 1005.5
20260504225503 15 265 3.2 6.4 0.00 0.00 0.00 60 1005.5
20260504225003 15 260 3.2 8.0 0.00 0.00 0.00 60 1005.5
20260504224524 15 261 3.2 9.7 0.00 0.00 0.00 59 1005.3
20260504224003 15 270 4.8 14.5 0.00 0.00 0.00 59 1005.3
20260504223503 15 268 6.4 14.5 0.00 0.00 0.00 58 1005.3
20260504223003 15 265 4.8 12.9 0.00 0.00 0.00 60 1005.2
20260504222503 15 261 6.4 17.7 0.00 0.00 0.00 59 1005.1
20260504222003 15 253 8.0 20.9 0.00 0.00 0.00 57 1005.1
20260504221503 15 242 9.7 20.9 0.00 0.00 0.00 57 1005.2
20260504221003 15 237 11.3 19.3 0.00 0.00 0.00 56 1005.1
20260504220503 15 240 11.3 25.7 0.00 0.00 0.00 57 1005.3
20260504220024 16 241 14.5 25.7 0.00 0.00 0.00 56 1005.3
20260504215524 15 246 14.5 32.2 0.00 0.00 0.00 56 1005.3
20260504215003 15 258 11.3 27.4 0.00 0.00 0.00 57 1005.2
20260504214503 16 252 14.5 30.6 0.00 0.00 0.00 56 1005.1
20260504214003 16 249 16.1 30.6 0.00 0.00 0.00 55 1004.9
20260504213503 16 248 16.1 32.2 0.00 0.00 0.00 55 1004.9
20260504213003 16 249 17.7 32.2 0.00 0.00 0.00 55 1004.9
20260504212503 16 250 17.7 32.2 0.00 0.00 0.00 55 1004.8
20260504212003 16 247 17.7 32.2 0.00 0.00 0.00 54 1004.9
20260504211503 16 250 16.1 30.6 0.00 0.00 0.00 53 1004.7
20260504211003 16 251 16.1 30.6 0.00 0.00 0.00 54 1004.7
20260504210503 17 248 14.5 30.6 0.00 0.00 0.00 55 1004.7
20260504210004 16 244 12.9 30.6 0.00 0.00 0.00 55 1004.6
20260504205503 16 245 14.5 30.6 0.00 0.00 0.00 57 1004.7
20260504205024 16 243 16.1 32.2 0.00 0.00 0.00 56 1004.6
20260504204503 16 247 16.1 32.2 0.00 0.00 0.00 55 1004.6
20260504204003 16 248 17.7 37.0 0.00 0.00 0.00 56 1004.5
20260504203524 16 249 19.3 37.0 0.00 0.00 0.00 56 1004.5
20260504203003 16 252 14.5 32.2 0.00 0.00 0.00 56 1004.3
20260504202503 16 251 16.1 45.1 0.00 0.00 0.00 57 1004.4
20260504202003 16 250 19.3 45.1 0.00 0.00 0.00 57 1004.5
20260504201503 16 245 16.1 32.2 0.00 0.00 0.00 58 1004.6
20260504201003 16 247 17.7 30.6 0.00 0.00 0.00 59 1004.5
20260504200503 15 245 16.1 30.6 0.00 0.00 0.00 60 1004.4
20260504200024 15 236 12.9 22.5 0.00 0.03 0.00 61 1004.4
20260504195503 15 229 12.9 24.1 0.00 0.03 0.00 60 1004.3
20260504195003 15 231 14.5 24.1 0.00 0.03 0.00 60 1004.3
20260504194503 15 239 14.5 29.0 0.00 0.05 0.00 60 1004.4
20260504194003 15 239 16.1 29.0 0.00 0.05 0.00 60 1004.4
20260504193503 15 238 17.7 30.6 0.00 0.05 0.00 60 1004.4
20260504193003 15 240 19.3 37.0 0.00 0.05 0.00 60 1004.4
20260504192503 16 237 19.3 37.0 0.00 0.05 0.00 59 1004.4
20260504192003 16 232 17.7 30.6 0.00 0.05 0.00 60 1004.4
20260504191503 16 237 16.1 30.6 0.00 0.08 0.00 59 1004.5
20260504191024 16 239 14.5 30.6 0.00 0.08 0.00 60 1004.5
20260504190504 15 234 16.1 32.2 0.00 0.08 0.00 63 1004.5
20260504190003 14 233 17.7 37.0 0.00 0.08 0.00 62 1004.5
20260504185503 14 233 19.3 40.2 0.00 0.10 0.00 63 1004.5
20260504185003 14 233 20.9 40.2 0.00 0.10 0.00 62 1004.6
20260504184503 14 233 19.3 37.0 0.00 0.10 0.00 61 1004.6
20260504184003 14 233 17.7 40.2 0.00 0.13 0.00 61 1004.8
20260504183503 14 235 17.7 40.2 0.00 0.13 0.00 63 1004.7
20260504183003 14 232 20.9 41.8 0.00 0.13 0.00 61 1004.8
20260504182503 15 233 20.9 41.8 0.00 0.15 0.00 60 1004.8
20260504182003 15 238 17.7 32.2 0.00 0.15 0.00 62 1004.8
20260504181503 14 237 16.1 33.8 0.00 0.18 0.00 63 1004.9
20260504181003 14 235 16.1 33.8 0.00 0.18 0.00 62 1005.0
20260504180503 13 232 11.3 32.2 0.00 0.18 0.00 63 1005.0
20260504180003 13 228 9.7 19.3 0.00 0.20 0.00 64 1005.1
20260504175503 13 231 12.9 29.0 0.00 0.20 0.00 66 1005.2
20260504175003 13 234 17.7 32.2 0.00 0.23 0.00 64 1005.3
20260504174503 12 236 16.1 32.2 0.00 0.23 0.00 64 1005.4
20260504174003 12 236 14.5 27.4 0.00 0.23 0.00 64 1005.5
20260504173503 12 237 16.1 29.0 0.00 0.25 0.00 63 1005.2
20260504173003 13 233 12.9 29.0 0.00 0.25 0.00 61 1005.2
20260504172524 13 227 9.7 20.9 0.00 0.28 0.00 62 1005.1
20260504172024 13 229 11.3 22.5 0.00 0.28 0.00 59 1005.0
20260504171503 13 228 9.7 22.5 0.00 0.30 0.00 60 1005.1
20260504171024 13 210 8.0 19.3 0.00 0.30 0.00 60 1005.0
20260504170503 13 204 9.7 19.3 0.00 0.33 0.00 59 1004.9
20260504151003 13 242 11.3 25.7 0.00 0.71 0.00 53 1004.9
20260504150503 13 239 11.3 25.7 0.00 0.71 0.00 56 1005.3
20260504141003 12 241 17.7 30.6 0.00 0.84 0.00 52 1006.1
20260504140503 12 234 14.5 27.4 0.00 0.84 0.00 52 1006.1
20260504130503 11 245 12.9 25.7 0.00 0.94 0.00 53 1006.6
20260504110503 4 245 9.7 17.7 0.00 1.22 0.00 74 1007.1
20260504100503 1 246 6.4 12.9 0.00 1.35 0.00 80 1006.6
20260504082003 2 252 8.0 16.1 0.00 1.40 0.00 77 1006.0
20260504081503 2 252 6.4 12.9 0.00 1.40 0.00 77 1006.1
20260504081003 1 253 4.8 11.3 0.00 1.42 0.00 76 1006.1
20260504080524 1 255 3.2 8.0 0.00 1.42 0.00 77 1006.1
20260504050503 3 268 9.7 16.1 0.00 1.50 0.00 70 1005.3
20260504050003 3 267 8.0 16.1 0.00 1.50 0.00 70 1005.3
20260504045503 3 263 9.7 19.3 0.00 1.50 0.00 70 1005.3
20260504045003 3 263 11.3 20.9 0.00 1.50 0.00 70 1005.3
20260504044504 3 266 11.3 20.9 0.00 1.50 0.00 70 1005.1
20260504044003 3 267 9.7 19.3 0.00 1.50 0.00 71 1005.1
20260504043524 3 267 8.0 16.1 0.00 1.50 0.00 71 1005.0
20260504043003 3 264 8.0 17.7 0.00 1.50 0.00 71 1005.0
20260504042503 3 262 8.0 17.7 0.00 1.50 0.00 71 1005.1
20260504042024 3 261 8.0 17.7 0.00 1.50 0.00 71 1005.0
20260504041503 3 264 8.0 19.3 0.00 1.50 0.00 71 1005.0
20260504041003 3 263 8.0 19.3 0.00 1.50 0.00 71 1005.0
20260504040503 3 260 8.0 16.1 0.00 1.50 0.00 71 1004.9
20260504040004 3 264 6.4 16.1 0.00 1.50 0.00 70 1004.9
20260504035524 3 265 6.4 12.9 0.00 1.50 1.50 70 1004.8
20260504035003 3 262 6.4 12.9 0.00 1.50 1.50 70 1004.7
20260504034503 3 262 6.4 12.9 0.00 1.50 1.50 70 1004.9
20260504034003 3 266 6.4 17.7 0.00 1.50 1.50 69 1004.8
20260504033524 4 269 6.4 17.7 0.00 1.50 1.50 68 1004.7
20260504033003 4 266 4.8 11.3 0.00 1.50 1.50 68 1004.6
20260504032524 4 264 6.4 14.5 0.00 1.50 1.50 68 1004.7
20260504032024 4 267 6.4 14.5 0.00 1.50 1.50 68 1004.6
20260504031503 5 273 6.4 14.5 0.00 1.50 1.50 67 1004.7
20260504031003 5 274 6.4 12.9 0.00 1.50 1.50 67 1004.6
20260504030524 5 272 6.4 22.5 0.00 1.50 1.50 67 1004.6
20260504030003 5 270 8.0 22.5 0.00 1.50 1.50 66 1004.5
20260504025503 5 268 8.0 16.1 0.00 1.50 1.50 67 1004.4
20260504025003 5 270 8.0 17.7 0.00 1.50 1.50 67 1004.4
20260504024503 5 275 8.0 19.3 0.00 1.50 1.50 67 1004.4
20260504024003 5 271 9.7 20.9 0.00 1.50 1.50 66 1004.3
20260504023503 5 269 9.7 20.9 0.00 1.50 1.50 66 1004.3
20260504023003 5 270 9.7 19.3 0.00 1.50 1.50 67 1004.3
20260504022503 5 269 8.0 19.3 0.00 1.50 1.50 66 1004.2
20260504022003 5 266 8.0 24.1 0.00 1.50 1.50 67 1004.2
20260504021503 5 266 9.7 24.1 0.00 1.50 1.50 67 1004.2
20260504021003 5 268 8.0 24.1 0.00 1.50 1.50 66 1004.1
20260504020503 5 268 9.7 24.1 0.00 1.50 1.50 65 1004.1
20260504020024 5 270 9.7 19.3 0.00 1.50 1.50 64 1004.0
20260504015503 6 271 11.3 22.5 0.00 1.50 1.50 64 1003.9
20260504015003 6 273 9.7 22.5 0.00 1.50 1.50 64 1003.9
20260504014524 6 278 9.7 25.7 0.00 1.50 1.50 64 1003.8
20260504014003 6 275 9.7 25.7 0.00 1.50 1.50 64 1003.8
20260504013503 6 273 9.7 25.7 0.00 1.50 1.50 63 1003.8
20260504013003 6 272 9.7 22.5 0.00 1.50 1.50 64 1003.8
20260504012524 6 276 9.7 20.9 0.00 1.50 1.50 64 1003.8
20260504012003 6 277 9.7 24.1 0.00 1.50 1.50 64 1003.8
20260504011503 6 277 9.7 25.7 0.00 1.50 1.50 64 1003.7
20260504011003 6 279 9.7 25.7 0.00 1.50 1.50 64 1003.6
20260504010503 6 279 9.7 25.7 0.00 1.50 1.50 64 1003.4
20260504010003 6 279 9.7 25.7 0.00 1.50 1.50 66 1003.4
20260504005503 6 278 9.7 24.1 0.00 1.50 1.50 66 1003.3
20260504005004 6 274 9.7 24.1 0.00 1.50 1.50 68 1003.2
20260504004524 7 281 9.7 22.5 0.00 1.50 1.50 68 1003.2
20260504004024 7 284 11.3 22.5 0.00 1.50 1.50 69 1003.0
20260504003503 7 279 11.3 22.5 0.00 1.50 1.50 70 1002.9
20260504003024 7 280 11.3 22.5 0.00 1.50 1.50 72 1002.7
20260504002503 7 283 11.3 22.5 0.00 1.50 1.50 75 1002.7
20260504002003 6 290 9.7 22.5 0.00 1.50 1.50 80 1002.7
20260504001503 6 291 8.0 22.5 0.00 1.50 1.50 84 1002.6
20260504001024 6 286 4.8 22.5 0.00 1.50 1.50 86 1002.5
20260504000503 7 285 1.6 6.4 0.00 1.50 1.50 86 1002.6
20260504000003 7 275 1.6 4.8 0.00 1.50 1.50 86 1002.5
20260503235503 7 275 1.6 6.4 0.00 1.50 1.50 85 1002.4
20260503235024 7 278 3.2 6.4 0.00 1.50 1.50 85 1002.3
20260503234503 7 293 3.2 8.0 0.00 1.50 1.50 85 1002.2
20260503234003 7 299 4.8 8.0 0.00 1.50 1.50 85 1002.0
20260503233503 7 298 4.8 8.0 0.00 1.50 1.50 85 1002.1
20260503233003 7 306 4.8 9.7 0.00 1.50 1.50 84 1002.1
20260503232503 7 305 4.8 11.3 0.00 1.50 1.50 84 1002.0
20260503232024 7 308 4.8 11.3 0.00 1.50 1.50 84 1002.0